Location: Pilipovskiye Korichintsy
(49.1833°N, 27.4667°E)
Time: 22:54:58
(UTC+00:00)

Lacrosse 5 - Pass Details

Date: 03 November 2020
Orbit: 714 x 725 km, 57.0° (Epoch: 30 November)

Event Time Altitude Azimuth Distance (km) Brightness Sun altitude
Rises 17:15:28 0° 304° (NW) 3,121 6.1 -24.9°
Reaches altitude 10° 17:17:50 10° 303° (WNW) 2,199 5.2 -25.3°
Maximum altitude 17:22:54 76° 218° (SW) 739 1.8 -26.1°
Enters shadow 17:23:03 75° 197° (SSW) 742 1.8 -26.1°
